Weather Roundup
Issued by NWS Chicago, IL

Home | Current Version | Previous Version | Text Only | Print | Product List | Glossary Off
Versions: 1 2 3 4 5 6 7 8 9 10 11 12 13 14 15 16 17 18 19 20 21 22 23 24 25 26 27 28 29 30 31 32 33 34 35 36 37 38 39 40 41 42 43 44 45 46 47 48 49 50

000
NZUS59 KLOT 290803
HRRLOT

CHICAGO AREA WEATHER ROUNDUP
NATIONAL WEATHER SERVICE CHICAGO/ROMEOVILLE IL
300 AM CDT FRI JUL 29 2016

NOTE: "FAIR" INDICATES FEW OR NO CLOUDS BELOW 12,000 FEET WITH NO
SIGNIFICANT WEATHER AND/OR OBSTRUCTIONS TO VISIBILITY.

* THESE STATIONS ARE NOT UNDER NWS QUALITY CONTROL. THEY ALSO MAY NOT
  REPORT WEATHER SUCH AS PRECIPITATION OR FOG.

ILZ005-006-012>014-019>023-290900-
NORTHEAST ILLINOIS

CITY           SKY/WX    TMP DP  RH WIND       PRES   REMARKS
OHARE          CLOUDY    70  68  93 NE7       29.91F
MIDWAY         PTCLDY    72  68  87 N7        29.91S
AURORA         CLOUDY    71  69  93 N7        29.93R FOG
LANSING*       MOCLDY    70  67  88 CALM      29.91F
WAUKEGAN       MOCLDY    69  68  96 N6        29.92F
DUPAGE AIRPORT CLOUDY    70  68  93 NE5       29.92S FOG
WHEELING       CLOUDY    70  68  93 N5        29.93F
KANKAKEE*      FOG       70  69  97 CALM      29.90F VSB<1/4
MORRIS*        CLOUDY    69  68  96 CALM      29.91S FOG
NORTHERLY ISL    N/A     71  69  93 N6          N/A
$$

WIZ051-052-058>065-066-070>072-290900-
SOUTHEAST WISCONSIN

CITY           SKY/WX    TMP DP  RH WIND       PRES   REMARKS
MILWAUKEE      CLOUDY    68  64  87 N15       29.95F
KENOSHA*       CLOUDY    68  66  93 N7        29.94F
RACINE*        CLOUDY    68  65  90 N10       29.96F
BURLINGTON     CLOUDY    67  65  91 N7        29.95F
WAUKESHA       CLOUDY    64  61  88 NE7       29.98S
$$

INZ001>003-010>013-019-020-290900-
NORTHWEST INDIANA

CITY           SKY/WX    TMP DP  RH WIND       PRES   REMARKS
GARY*          CLEAR     69  69 100 CALM      29.91F
MICHIGAN CITY* NOT AVBL
RENSSELAER*    NOT AVBL
VALPARAISO     CLEAR     65  64  97 CALM      29.91S
$$

LMZ740>746-290900-
SOUTHERN LAKE MICHIGAN

STATION/POSITION TIME  SKY/WX   TEMP WIND        PRES    VSBY
                                AIR  DIR/SP/G
                 (UTC)          (F)  (DEG/KT/KT) (MB)    (MI)
HARRISON CRIB    0700            72  340/  9/ 10   N/A
BURNHAM HARBOR   0800            71  340/  3/  7   N/A
CALUMET HARBOR   0700            71  330/  4/ 10 1012.6R
BURNS HARBOR     0702            72   30/  4/  8 1013.2S
MICHIGAN CITY    0700            71   20/  3/  4   N/A
$$

ABBREVIATIONS USED IN REMARKS
   TC - TEMPERATURE IN CELSIUS
  WCI - WIND CHILL INDEX
   HX - HEAT INDEX
  VSB - VISIBILITY
$$




USA.gov is the U.S. government's official web portal to all federal, state and local government web resources and services.